Printer-friendly version
Follow the MPC on Twitter Follow the MPC on Facebook The MPC blog
Minor Planet Center

MPEC 2005-E76 : 2005 EL169

The following Minor Planet Electronic Circular may be linked-to from your own Web pages, but must not otherwise be redistributed electronically.

A form allowing access to any MPEC is at the bottom of this page.


Read MPEC 2005-E75 Read MPEC 2005-E77


M.P.E.C. 2005-E76                                Issued 2005 Mar. 13, 16:31 UT

     The Minor Planet Electronic Circulars contain information on unusual
         minor planets and routine data on comets.  They are published
   on behalf of Commission 20 of the International Astronomical Union by the
          Minor Planet Center, Smithsonian Astrophysical Observatory,
                          Cambridge, MA 02138, U.S.A.

                  Supported in part by the Brinson Foundation
             Prepared using the Tamkin Foundation Computer Network

                              MPC@CFA.HARVARD.EDU
          URL http://cfa-www.harvard.edu/iau/mpc.html  ISSN 1523-6714

                                  2005 EL169

Observations:
     K05EG9L* C2005 03 11.36512 12 55 08.52 -08 27 27.2          19.4 R EE076G96
     K05EG9L  C2005 03 11.37189 12 55 07.80 -08 27 46.4          19.2 R EE076G96
     K05EG9L  C2005 03 11.37870 12 55 07.05 -08 28 05.6          19.7 R EE076G96
     K05EG9L  C2005 03 11.39073 12 55 05.73 -08 28 40.2          20.2 R EE076G96
     K05EG9L  C2005 03 11.39851 12 55 04.89 -08 29 02.4          19.4 R EE076G96
     K05EG9L  C2005 03 11.40637 12 55 04.04 -08 29 24.5          20.3 R EE076G96
     K05EG9L  C2005 03 11.41419 12 55 03.21 -08 29 46.9          19.8 R EE076G96
     K05EG9L  C2005 03 12.42404 12 53 25.45 -09 17 44.9          20.3 R EE076G96
     K05EG9L  C2005 03 12.43063 12 53 24.77 -09 18 03.5          20.1 R EE076G96
     K05EG9L  C2005 03 12.43723 12 53 24.01 -09 18 22.4          20.2 R EE076G96
     K05EG9L  C2005 03 12.44387 12 53 23.27 -09 18 41.1          20.3 R EE076G96
     K05EG9L  C2005 03 13.42281 12 51 44.68 -10 05 13.5          19.2 R EE076G96
     K05EG9L  C2005 03 13.42582 12 51 44.33 -10 05 22.4          19.5 R EE076G96
     K05EG9L  C2005 03 13.42884 12 51 43.97 -10 05 30.7          19.6 R EE076G96
     K05EG9L  C2005 03 13.43186 12 51 43.65 -10 05 39.4          20.0 R EE076G96

Observer details:
G96 Mt. Lemmon Survey.  Observer E. J. Christensen.  Measurers E. C. Beshore,
    C. M. Casey, E. J. Christensen, G. J. Garradd, R. E. Hill, S. M. Larson,
    R. H. McNaught.  1.5-m reflector + CCD.

Orbital elements:
2005 EL169
Epoch 2005 Mar. 11.0 TT = JDT 2453440.5                 MPC
M   7.11156              (2000.0)            P               Q
n   0.57412417     Peri.  171.88786     -0.96689330     -0.25407197
a   1.4337238      Node   353.25110     +0.22130456     -0.78852198
e   0.1634260      Incl.   11.66701     +0.12704973     -0.56007189
P   1.72           H   22.0           G   0.15
From 15 observations 2005 Mar. 11-13.

Ephemeris:
2005 EL169               a,e,i = 1.43, 0.16, 12                  q = 1.1994
Date    TT    R. A. (2000) Decl.     Delta      r     Elong.  Phase     V
2005 03 11    12 55.71   -08 09.7    0.227    1.202   154.4    20.9    20.2
2005 03 21    12 37.08   -15 57.9    0.221    1.208   161.9    14.8    20.0
2005 03 31    12 15.10   -22 43.4    0.228    1.217   160.6    15.9    20.1
2005 04 10    11 55.25   -27 34.5    0.249    1.229   152.8    21.9    20.5
2005 04 20    11 42.24   -30 33.8    0.280    1.243   144.5    28.0    20.9
2005 04 30    11 37.76   -32 15.2    0.318    1.260   137.3    32.8    21.4
2005 05 10    11 41.21   -33 10.4    0.363    1.279   131.3    36.4    21.8

Timothy B. Spahr             (C) Copyright 2005 MPC           M.P.E.C. 2005-E76

Read MPEC 2005-E75 Read MPEC 2005-E77


MPEC number:

Enter an MPEC number in one of the following forms:

  • 1997-B01 (the full form)
  • J97B01 (the packed version of the full form)
  • B01 (the abbreviated form)

Valid HTML 4.01!